Baltimore Martin, MD

10:21 AM EDT on July 28, 2017 (GMT -0400)
Martin State

Weather History for KMTN - September, 2013

Change the Weather History Date:

Monday, September 2, 2013

  Actual Average Record
Temperature  
Mean Temperature 80 °F -  
Max Temperature 86 °F 78 °F 93 °F (2014)
Min Temperature 75 °F 64 °F 55 °F (2001)
Cooling Degree Days 16    
Growing Degree Days 30 (Base 50)    
Moisture  
Dew Point 74 °F    
Average Humidity 82    
Maximum Humidity 94    
Minimum Humidity 70    
Precipitation  
Precipitation 0.00 in - - ()
Sea Level Pressure  
Sea Level Pressure 29.77 in    
Wind  
Wind Speed 3 mph (South)    
Max Wind Speed 10 mph    
Max Gust Speed -    
Visibility 10 miles    
Events Rain    
Averages and records for this station are not official NWS values.
T = Trace of Precipitation, MM = Missing Value Source: NWS Daily Summary

Daily Weather History Graph

Daily Weather History Graph

Search for Another Location

Airport or City:

Trip Planner

Search our weather history database for the weather conditions in past years. The results will help you decide how hot, cold, wet, or windy it might be!

Date:

Astronomy

Sep. 02, 2013 Rise Set
Actual Time 6:35 AM EDT 7:34 PM EDT
Civil Twilight 6:07 AM EDT 8:01 PM EDT
Nautical Twilight 5:35 AM EDT 8:34 PM EDT
Astronomical Twilight 5:01 AM EDT 9:08 PM EDT
Moon 3:50 AM EDT (9/2) 5:46 PM EDT (9/2)
Length of Visible Light 13h 54m
Length of Day
12h 59m
Waning Crescent, 8% of the Moon is Illuminated
Sep 2
Waning Crescent
Sep 5
New
Sep 12
First Quarter
Sep 19
Full
Sep 26
Last Quarter

Hourly Weather History & Observations

Time (EDT) Temp. Heat Index Dew Point Humidity Pressure Visibility Wind Dir Wind Speed Gust Speed Precip Events Conditions
12:06 AM 78.8 °F - 77.0 °F 94% 29.79 in 10.0 mi Calm Calm - N/A   Clear
12:24 AM 78.8 °F - 77.0 °F 94% 29.79 in 10.0 mi Calm Calm - N/A   Clear
12:45 AM 78.8 °F - 77.0 °F 94% 29.79 in 10.0 mi South 3.5 mph - N/A   Clear
1:06 AM 80.6 °F 87.1 °F 77.0 °F 89% 29.79 in 10.0 mi South 3.5 mph - N/A   Clear
1:27 AM 80.6 °F 87.1 °F 77.0 °F 89% 29.79 in 10.0 mi Calm Calm - N/A   Clear
1:45 AM 78.8 °F - 77.0 °F 94% 29.78 in 10.0 mi Calm Calm - N/A   Clear
2:06 AM 78.8 °F - 77.0 °F 94% 29.78 in 7.0 mi Calm Calm - N/A   Clear
2:27 AM 80.6 °F 87.1 °F 77.0 °F 89% 29.79 in 10.0 mi Calm Calm - N/A   Scattered Clouds
2:45 AM 80.6 °F 87.1 °F 77.0 °F 89% 29.79 in 10.0 mi South 6.9 mph - N/A   Scattered Clouds
3:06 AM 80.6 °F 86.2 °F 75.2 °F 84% 29.79 in 10.0 mi SSW 5.8 mph - N/A   Scattered Clouds
3:27 AM 80.6 °F 85.4 °F 73.4 °F 79% 29.78 in 10.0 mi WSW 8.1 mph - N/A   Clear
3:45 AM 78.8 °F - 73.4 °F 83% 29.77 in 10.0 mi West 6.9 mph - N/A   Clear
4:06 AM 78.8 °F - 71.6 °F 78% 29.76 in 10.0 mi West 6.9 mph - N/A   Clear
4:27 AM 77.0 °F - 71.6 °F 83% 29.76 in 10.0 mi West 5.8 mph - N/A   Clear
4:45 AM 77.0 °F - 71.6 °F 83% 29.76 in 10.0 mi WNW 3.5 mph - N/A   Clear
5:06 AM 77.0 °F - 71.6 °F 83% 29.76 in 10.0 mi West 4.6 mph - N/A Rain Light Rain
5:27 AM 77.0 °F - 71.6 °F 83% 29.77 in 10.0 mi SSW 4.6 mph - N/A   Clear
5:33 AM 77.0 °F - 71.6 °F 83% 29.77 in 10.0 mi SSW 5.8 mph - N/A   Clear
5:50 AM 78.8 °F - 71.6 °F 78% 29.78 in 10.0 mi SW 4.6 mph - N/A   Mostly Cloudy
6:50 AM 75.2 °F - 71.6 °F 89% 29.79 in 10.0 mi Calm Calm - N/A   Mostly Cloudy
7:45 AM 75.2 °F - 73.4 °F 94% 29.80 in 10.0 mi Calm Calm - N/A   Mostly Cloudy
8:45 AM 77.0 °F - 71.6 °F 83% 29.80 in 10.0 mi South 4.6 mph - N/A   Scattered Clouds
9:55 AM 80.6 °F 84.6 °F 71.6 °F 74% 29.81 in 10.0 mi South 3.5 mph - N/A   Scattered Clouds
10:55 AM 82.4 °F 88.2 °F 73.4 °F 74% 29.80 in 10.0 mi SE 3.5 mph - N/A   Partly Cloudy
11:45 AM 84.2 °F 90.9 °F 73.4 °F 70% 29.80 in 10.0 mi ESE 6.9 mph - N/A   Scattered Clouds
12:50 PM 86.0 °F 95.1 °F 75.2 °F 70% 29.79 in 10.0 mi SE 10.4 mph - N/A   Mostly Cloudy
1:45 PM 86.0 °F 95.1 °F 75.2 °F 70% 29.78 in 10.0 mi SE 10.4 mph - N/A   Mostly Cloudy
2:50 PM 84.2 °F 92.3 °F 75.2 °F 74% 29.76 in 10.0 mi SE 10.4 mph - N/A   Scattered Clouds
3:45 PM 84.2 °F 94.1 °F 77.0 °F 79% 29.75 in 10.0 mi ESE 6.9 mph - N/A   Scattered Clouds
4:45 PM 86.0 °F 96.9 °F 77.0 °F 74% 29.74 in 10.0 mi SE 9.2 mph - N/A   Scattered Clouds
5:55 PM 86.0 °F 96.9 °F 77.0 °F 74% 29.73 in 10.0 mi SE 8.1 mph - N/A   Scattered Clouds
6:45 PM 84.2 °F 94.1 °F 77.0 °F 79% 29.74 in 10.0 mi SE 8.1 mph - N/A   Scattered Clouds
8:50 PM 82.4 °F 90.9 °F 77.0 °F 84% 29.74 in 10.0 mi SE 3.5 mph - N/A   Partly Cloudy
10:09 PM 82.4 °F 88.2 °F 73.4 °F 74% 29.76 in 10.0 mi South 5.8 mph - N/A   Clear
10:27 PM 82.4 °F 88.2 °F 73.4 °F 74% 29.76 in 10.0 mi Calm Calm - N/A   Clear
10:48 PM 80.6 °F 85.4 °F 73.4 °F 79% 29.77 in 10.0 mi Calm Calm - N/A   Clear
11:09 PM 80.6 °F 85.4 °F 73.4 °F 79% 29.77 in 10.0 mi South 5.8 mph - N/A   Clear
11:27 PM 80.6 °F 85.4 °F 73.4 °F 79% 29.76 in 10.0 mi South 4.6 mph - N/A   Clear
11:48 PM 80.6 °F 85.4 °F 73.4 °F 79% 29.77 in 10.0 mi SSW 3.5 mph - N/A   Clear